Gwinner, ND

9:19 PM CDT on June 26, 2017 (GMT -0500)
Gwinner-melroe

Weather History for KGWR - December, 2012

Change the Weather History Date:

Thursday, December 6, 2012

  Actual Average (KP67) Record (KP67)
Temperature  
Mean Temperature 30 °F -  
Max Temperature 41 °F 24 °F 26 °F (1996)
Min Temperature 19 °F 13 °F 12 °F (1996)
Degree Days  
Heating Degree Days 35    
Moisture  
Dew Point 23 °F    
Average Humidity 74    
Maximum Humidity 93    
Minimum Humidity 52    
Precipitation  
Precipitation 0.00 in - - ()
Sea Level Pressure  
Sea Level Pressure 29.92 in    
Wind  
Wind Speed 11 mph (WNW)    
Max Wind Speed 26 mph    
Max Gust Speed 30 mph    
Visibility 10 miles    
Events      
Averages and records for this station are not official NWS values.
T = Trace of Precipitation, MM = Missing Value Source: NWS Daily Summary

Daily Weather History Graph

Daily Weather History Graph

Search for Another Location

Airport or City:

Trip Planner

Search our weather history database for the weather conditions in past years. The results will help you decide how hot, cold, wet, or windy it might be!

Date:

Astronomy

Dec. 06, 2012 Rise Set
Actual Time 7:58 AM CST 4:44 PM CST
Civil Twilight 7:24 AM CST 5:19 PM CST
Nautical Twilight 6:46 AM CST 5:56 PM CST
Astronomical Twilight 6:10 AM CST 6:33 PM CST
Moon No Moon Rise 12:32 PM CST (12/6)
Length of Visible Light 9h 54m
Length of Day
8h 45m
Waning Gibbous, 49% of the Moon is Illuminated
Dec 6
Waning Gibbous
Dec 13
New
Dec 19
First Quarter
Dec 28
Full
Jan 4
Last Quarter

Hourly Weather History & Observations

Time (CST) Temp. Windchill Dew Point Humidity Pressure Visibility Wind Dir Wind Speed Gust Speed Precip Events Conditions
12:15 AM 35.6 °F 30.7 °F 26.6 °F 70% 29.69 in 9.0 mi WSW 5.8 mph - 0.00 in   Clear
12:35 AM 35.6 °F 31.7 °F 28.4 °F 75% 29.69 in 10.0 mi WSW 4.6 mph - 0.00 in   Clear
12:55 AM 35.6 °F 30.7 °F 28.4 °F 75% 29.70 in 10.0 mi SW 5.8 mph - 0.00 in   Scattered Clouds
1:15 AM 37.4 °F 30.3 °F 28.4 °F 70% 29.71 in 10.0 mi WNW 10.4 mph - 0.00 in   Mostly Cloudy
1:35 AM 39.2 °F 32.0 °F 28.4 °F 65% 29.70 in 10.0 mi NW 11.5 mph - 0.00 in   Partly Cloudy
1:55 AM 41.0 °F 32.8 °F 28.4 °F 61% 29.70 in 10.0 mi WNW 16.1 mph - 0.00 in   Clear
2:15 AM 41.0 °F 32.5 °F 28.4 °F 61% 29.71 in 10.0 mi WNW 17.3 mph - 0.00 in   Clear
7:35 AM 35.6 °F 26.6 °F 30.2 °F 81% 29.87 in 10.0 mi WNW 13.8 mph - 0.00 in   Clear
7:55 AM 33.8 °F 24.8 °F 28.4 °F 81% 29.88 in 10.0 mi WNW 12.7 mph - 0.00 in   Clear
8:15 AM 33.8 °F 26.4 °F 28.4 °F 81% 29.88 in 10.0 mi WNW 9.2 mph - 0.00 in   Clear
8:35 AM 32.0 °F 24.8 °F 28.4 °F 87% 29.89 in 10.0 mi WNW 8.1 mph - 0.00 in   Clear
8:55 AM 32.0 °F 24.8 °F 28.4 °F 87% 29.90 in 10.0 mi WNW 8.1 mph - 0.00 in   Clear
9:15 AM 33.8 °F 23.5 °F 28.4 °F 81% 29.90 in 10.0 mi WNW 16.1 mph - 0.00 in   Clear
9:35 AM 33.8 °F 23.9 °F 28.4 °F 81% 29.90 in 10.0 mi NW 15.0 mph 20.7 mph 0.00 in   Clear
9:55 AM 35.6 °F 23.2 °F 28.4 °F 75% 29.90 in 10.0 mi WNW 26.5 mph 29.9 mph 0.00 in   Clear
10:15 AM 35.6 °F 24.0 °F 26.6 °F 70% 29.91 in 10.0 mi NW 23.0 mph 29.9 mph 0.00 in   Clear
10:35 AM 35.6 °F 24.5 °F 26.6 °F 70% 29.92 in 10.0 mi NW 20.7 mph 28.8 mph 0.00 in   Clear
10:55 AM 35.6 °F 24.0 °F 26.6 °F 70% 29.93 in 10.0 mi NW 23.0 mph 26.5 mph 0.00 in   Clear
11:15 AM 35.6 °F 24.8 °F 24.8 °F 65% 29.93 in 10.0 mi NW 19.6 mph 27.6 mph 0.00 in   Clear
11:35 AM 35.6 °F 24.2 °F 24.8 °F 65% 29.93 in 10.0 mi NW 21.9 mph 28.8 mph 0.00 in   Clear
11:55 AM 35.6 °F 24.0 °F 23.0 °F 60% 29.93 in 10.0 mi WNW 23.0 mph 29.9 mph 0.00 in   Clear
12:15 PM 35.6 °F 25.2 °F 21.2 °F 56% 29.93 in 10.0 mi NW 18.4 mph 25.3 mph 0.00 in   Clear
12:35 PM 35.6 °F 25.2 °F 21.2 °F 56% 29.94 in 10.0 mi NW 18.4 mph - 0.00 in   Clear
12:55 PM 35.6 °F 24.0 °F 21.2 °F 56% 29.94 in 10.0 mi NW 23.0 mph 26.5 mph 0.00 in   Clear
1:15 PM 35.6 °F 24.5 °F 21.2 °F 56% 29.94 in 10.0 mi NW 20.7 mph - 0.00 in   Clear
1:35 PM 37.4 °F 27.2 °F 21.2 °F 52% 29.94 in 10.0 mi NW 19.6 mph - 0.00 in   Clear
1:55 PM 35.6 °F 25.5 °F 21.2 °F 56% 29.94 in 10.0 mi NW 17.3 mph - 0.00 in   Clear
2:15 PM 35.6 °F 25.2 °F 21.2 °F 56% 29.95 in 10.0 mi NW 18.4 mph 25.3 mph 0.00 in   Clear
2:35 PM 33.8 °F 23.5 °F 21.2 °F 60% 29.95 in 10.0 mi NW 16.1 mph 21.9 mph 0.00 in   Clear
2:55 PM 33.8 °F 24.3 °F 21.2 °F 60% 29.95 in 10.0 mi NW 13.8 mph 20.7 mph 0.00 in   Clear
3:15 PM 33.8 °F 24.8 °F 21.2 °F 60% 29.96 in 10.0 mi NW 12.7 mph 21.9 mph 0.00 in   Clear
3:35 PM 33.8 °F 24.3 °F 21.2 °F 60% 29.96 in 10.0 mi NW 13.8 mph - 0.00 in   Clear
3:55 PM 33.8 °F 25.8 °F 23.0 °F 65% 29.96 in 10.0 mi WNW 10.4 mph 18.4 mph 0.00 in   Clear
4:15 PM 33.8 °F 25.8 °F 23.0 °F 65% 29.97 in 10.0 mi WNW 10.4 mph - 0.00 in   Clear
4:35 PM 33.8 °F 27.7 °F 23.0 °F 65% 29.97 in 10.0 mi WNW 6.9 mph - 0.00 in   Clear
4:55 PM 32.0 °F 25.6 °F 23.0 °F 69% 29.97 in 10.0 mi WNW 6.9 mph - 0.00 in   Clear
5:15 PM 32.0 °F 26.4 °F 23.0 °F 69% 29.98 in 10.0 mi NW 5.8 mph - 0.00 in   Clear
5:35 PM 30.2 °F 24.3 °F 21.2 °F 69% 29.98 in 10.0 mi NW 5.8 mph - 0.00 in   Clear
5:55 PM 28.4 °F 21.2 °F 21.2 °F 74% 29.99 in 10.0 mi WNW 6.9 mph - 0.00 in   Clear
6:15 PM 28.4 °F 20.4 °F 21.2 °F 74% 29.99 in 10.0 mi NW 8.1 mph - 0.00 in   Clear
6:35 PM 28.4 °F 20.4 °F 21.2 °F 74% 29.98 in 10.0 mi NNW 8.1 mph - 0.00 in   Clear
6:55 PM 28.4 °F - 21.2 °F 74% 29.98 in 10.0 mi Calm Calm - 0.00 in   Clear
7:15 PM 26.6 °F 19.1 °F 21.2 °F 80% 29.99 in 10.0 mi WNW 6.9 mph - 0.00 in   Clear
7:35 PM 23.0 °F 14.7 °F 17.6 °F 80% 30.00 in 10.0 mi SW 6.9 mph - 0.00 in   Clear
7:55 PM 19.4 °F 8.6 °F 17.6 °F 93% 30.01 in 10.0 mi SSW 9.2 mph - 0.00 in   Clear
8:15 PM 21.2 °F 11.7 °F 19.4 °F 93% 30.00 in 10.0 mi SW 8.1 mph - 0.00 in   Clear
8:35 PM 21.2 °F 10.9 °F 19.4 °F 93% 29.99 in 10.0 mi SSW 9.2 mph - 0.00 in   Clear
8:55 PM 21.2 °F 11.7 °F 19.4 °F 93% 29.99 in 10.0 mi WSW 8.1 mph - 0.00 in   Clear
9:15 PM 23.0 °F 13.9 °F 19.4 °F 86% 30.00 in 10.0 mi WSW 8.1 mph - 0.00 in   Clear
9:35 PM 23.0 °F 14.7 °F 19.4 °F 86% 30.00 in 10.0 mi WSW 6.9 mph - 0.00 in   Clear
9:55 PM 21.2 °F 13.6 °F 17.6 °F 86% 30.00 in 10.0 mi SSE 5.8 mph - 0.00 in   Clear
10:15 PM 21.2 °F 11.7 °F 19.4 °F 93% 30.00 in 10.0 mi SSW 8.1 mph - 0.00 in   Clear
10:35 PM 21.2 °F 12.6 °F 19.4 °F 93% 30.00 in 10.0 mi South 6.9 mph - 0.00 in   Clear
10:55 PM 23.0 °F 14.7 °F 21.2 °F 93% 30.00 in 10.0 mi South 6.9 mph - 0.00 in   Clear
11:15 PM 23.0 °F 17.0 °F 21.2 °F 93% 30.00 in 10.0 mi SSW 4.6 mph - 0.00 in   Clear
11:35 PM 23.0 °F - 21.2 °F 93% 30.00 in 10.0 mi Calm Calm - 0.00 in   Clear
11:55 PM 24.8 °F - 21.2 °F 86% 30.00 in 10.0 mi Calm Calm - 0.00 in   Clear